Regional Weather Roundup
Issued by NWS

Home | Current Version | Previous Version | Graphics & Text | Print | Product List | Glossary Off
Versions: 1 2 3 4 5 6 7 8 9 10 11 12 13 14 15 16 17 18 19 20 21 22 23 24 25 26 27 28 29 30 31 32 33 34 35 36 37 38 39 40 41 42 43 44 45 46 47 48 49 50

000
ASUS43 KMKX 060021
RWRWI

WISCONSIN REGIONAL WEATHER ROUNDUP
NATIONAL WEATHER SERVICE MILWAUKEE/SULLIVAN WI
700 PM CDT SUN JUL 05 2015

NOTE: "FAIR" INDICATES FEW OR NO CLOUDS BELOW 12,000 FEET WITH NO
SIGNIFICANT WEATHER AND/OR OBSTRUCTIONS TO VISIBILITY.

WIZ001-002-006>008-014>016-023>028-060100-
NORTHWEST WISCONSIN

CITY           SKY/WX    TMP DP  RH WIND       PRES   REMARKS
SUPERIOR ARPT  CLOUDY    82  70  67 SW16      29.76F HX  85
6HR MIN TEMP:  81; 6HR MAX TEMP:  85;

ASHLAND        PTSUNNY   81  66  60 S15G24    29.80F HX  83
6HR MIN TEMP:  81; 6HR MAX TEMP:  85;

HAYWARD        PTSUNNY   81  66  60 S17G24    29.85F HX  83
6HR MIN TEMP:  79; 6HR MAX TEMP:  83;

SIREN          PTSUNNY   83  67  58 S12G21    29.82F HX  85
6HR MIN TEMP:  81; 6HR MAX TEMP:  85;

CUMBERLAND     PTSUNNY   79  64  61 S14G24    29.86F HX  81
RICE LAKE      PTSUNNY   81  65  59 S16G23    29.88F HX  82
6HR MIN TEMP:  79; 6HR MAX TEMP:  83;

CHETEK         PTSUNNY   80  68  65 MISG      29.88S HX  83
6HR MIN TEMP:  79; 6HR MAX TEMP:  83;

LADYSMITH      PTSUNNY   80  66  62 S13G18    29.90F HX  82
6HR MIN TEMP:  79; 6HR MAX TEMP:  82;

EAU CLAIRE     PTSUNNY   80  65  59 S12G24    29.88F HX  82
6HR MIN TEMP:  80; 6HR MAX TEMP:  85;

MENOMONIE      PTSUNNY   82  68  63 SE9       29.88S HX  85
NEW RICHMOND   PTSUNNY   81  67  64 S13G20    29.85F HX  83
6HR MIN TEMP:  79; 6HR MAX TEMP:  83;

OSCEOLA        PTSUNNY   82  69  64 S16G23    29.86S HX  85
6HR MIN TEMP:  80; 6HR MAX TEMP:  85;

$$

WIZ003>005-009-010-017-018-060100-
NORTH CENTRAL WISCONSIN

CITY           SKY/WX    TMP DP  RH WIND       PRES   REMARKS
MANITOWISH WTR PTSUNNY   76  63  62 S9        29.90F
6HR MIN TEMP:  76; 6HR MAX TEMP:  80;

ARBOR VITAE    MOSUNNY   77  62  59 SW12      29.92F
6HR MIN TEMP:  77; 6HR MAX TEMP:  82;

WOODRUFF       MOSUNNY   77  62  59 SW12      29.92F
6HR MIN TEMP:  77; 6HR MAX TEMP:  82;

RHINELANDER    MOSUNNY   79  61  53 SW10      29.96S HX  80
6HR MIN TEMP:  79; 6HR MAX TEMP:  82;

EAGLE RIVER    MOSUNNY   77  57  50 SW6G18    29.93S
LAND O LAKES   MOSUNNY   78  60  52 S9        29.93F HX  80
6HR MIN TEMP:  78; 6HR MAX TEMP:  82;

PHILLIPS       PTSUNNY   77  64  63 S9        29.90F
6HR MIN TEMP:  77; 6HR MAX TEMP:  80;

TOMAHAWK       SUNNY     77  63  61 S3        29.94S
6HR MIN TEMP:  77; 6HR MAX TEMP:  81;

MEDFORD        MOSUNNY   77  64  62 S12       29.93F
6HR MIN TEMP:  77; 6HR MAX TEMP:  81;

MERRILL        SUNNY     79  64  60 S7        29.95S HX  80
6HR MIN TEMP:  79; 6HR MAX TEMP:  82;

$$

WIZ029-030-035-036-043>047-060100-
CENTRAL WISCONSIN

CITY           SKY/WX    TMP DP  RH WIND       PRES   REMARKS
WAUSAU         SUNNY     80  61  52 S13       29.93F HX  81
6HR MIN TEMP:  80; 6HR MAX TEMP:  84;

MOSINEE        SUNNY     77  64  65 S12       29.96F
MARSHFIELD     MOSUNNY   80  62  54 S14G20    29.95S HX  81
6HR MIN TEMP:  80; 6HR MAX TEMP:  83;

STEVENS POINT  MOSUNNY   79  61  54 S12G17    29.96S HX  80
6HR MIN TEMP:  77; 6HR MAX TEMP:  82;

WAUPACA        SUNNY     82  64  53 S7        29.96F HX  84
6HR MIN TEMP:  82; 6HR MAX TEMP:  86;

WAUTOMA        MOSUNNY   82  63  52 S7        29.96F HX  83
6HR MIN TEMP:  82; 6HR MAX TEMP:  85;

WISC RAPIDS    MOSUNNY   80  61  52 SW8       29.96F HX  81
6HR MIN TEMP:  80; 6HR MAX TEMP:  84;

CAMP DOUGLAS   SUNNY     80  66  62 VRB6      29.95S HX  83
6HR MIN TEMP:  80; 6HR MAX TEMP:  84;

$$

WIZ011>013-019>022-031-037>040-048>050-060100-
NORTHEAST WISCONSIN

CITY           SKY/WX    TMP DP  RH WIND       PRES   REMARKS
ANTIGO         SUNNY     76  62  63 S12       29.96F
SHAWANO        SUNNY     82  62  50 S7        29.95F HX  83
6HR MIN TEMP:  82; 6HR MAX TEMP:  84;

OCONTO         SUNNY     76  65  69 S8        29.95S
STURGEON BAY   SUNNY     72  59  64 S15       30.00F
6HR MIN TEMP:  72; 6HR MAX TEMP:  77;

GREEN BAY      SUNNY     81  62  52 S9        29.97S HX  82
6HR MIN TEMP:  80; 6HR MAX TEMP:  83;

MANITOWOC      SUNNY     72  60  66 MISG      30.00F
6HR MIN TEMP:  72; 6HR MAX TEMP:  76;

APPLETON       MOSUNNY   79  61  53 S13       29.98F HX  80
CLINTONVILLE   SUNNY     81  61  50 S12       29.95F HX  81
OSHKOSH        SUNNY     79  63  57 S8        29.97F HX  80
6HR MIN TEMP:  79; 6HR MAX TEMP:  82;

$$

WIZ032>034-041-042-053>061-060100-
SOUTHWEST WISCONSIN

CITY           SKY/WX    TMP DP  RH WIND       PRES   REMARKS
LA CROSSE      MOSUNNY   81  65  58 S15       29.91F HX  83
6HR MIN TEMP:  81; 6HR MAX TEMP:  85;

SPARTA         SUNNY     80  61  52 S9        29.95S HX  81
6HR MIN TEMP:  80; 6HR MAX TEMP:  86;

VIROQUA        MOSUNNY   78  64  61 S13       29.97F HX  80
6HR MIN TEMP:  78; 6HR MAX TEMP:  82;

BOSCOBEL       MOSUNNY   81  66  60 SW6       29.96F HX  83
6HR MIN TEMP:  81; 6HR MAX TEMP:  86;

PRAIRIE DU CHI MOSUNNY   81  62  53 S6        29.95S HX  82
6HR MIN TEMP:  81; 6HR MAX TEMP:  82;

PLATTEVILLE    PTSUNNY   77  67  71 SE6       29.98F
6HR MIN TEMP:  77; 6HR MAX TEMP:  82;

$$

WIZ056-057-062-063-064-067-068-060100-
SOUTH CENTRAL WISCONSIN

CITY           SKY/WX    TMP DP  RH WIND       PRES   REMARKS
REEDSBURG      MOSUNNY   79  66  63 S5        29.96F HX  81
6HR MIN TEMP:  79; 6HR MAX TEMP:  83;

BARABOO/DELLS  SUNNY     79  62  56 S12       29.97F HX  80
6HR MIN TEMP:  79; 6HR MAX TEMP:  83;

LONE ROCK      MOSUNNY   81  63  54 SW9       29.97F HX  82
6HR MIN TEMP:  81; 6HR MAX TEMP:  85;

MINERAL POINT  SUNNY     79  64  61 S9        30.00S HX  81
MADISON        MOSUNNY   80  63  55 S14       29.98F HX  81
6HR MIN TEMP:  79; 6HR MAX TEMP:  83;

MIDDLETON      SUNNY     81  60  49 S8G18     29.99S HX  82
6HR MIN TEMP:  81; 6HR MAX TEMP:  84;

WATERTOWN      SUNNY     78  64  62 S6        29.99F HX  80
6HR MIN TEMP:  78; 6HR MAX TEMP:  82;

MONROE         SUNNY     77  64  65 S12       30.00F
JANESVILLE     MOSUNNY   81  63  54 S9        30.00F HX  82
$$

WIZ051-052-058>065-066-070>072-060100-
SOUTHEAST WISCONSIN

CITY           SKY/WX    TMP DP  RH WIND       PRES   REMARKS
MILWAUKEE      MOSUNNY   76  59  55 S10       30.01F
6HR MIN TEMP:  76; 6HR MAX TEMP:  82;

WAUKESHA       SUNNY     75  61  60 SE14      30.02F
MILWAUKEE/TIMM SUNNY     79  57  47 S9        30.02F HX  80
RACINE         SUNNY     74  58  57 S10       30.04F
6HR MIN TEMP:  74; 6HR MAX TEMP:  80;

BURLINGTON     SUNNY     76  62  62 SE3       30.02S
6HR MIN TEMP:  76; 6HR MAX TEMP:  80;

KENOSHA        SUNNY     76  60  57 SE8       30.02F
6HR MIN TEMP:  76; 6HR MAX TEMP:  83;

FOND DU LAC    SUNNY     80  63  55 S9        29.98F HX  81
6HR MIN TEMP:  79; 6HR MAX TEMP:  83;

SHEBOYGAN      SUNNY     73  60  63 S9        30.00F
6HR MIN TEMP:  73; 6HR MAX TEMP:  79;

WEST BEND      SUNNY     77  61  57 SE6       30.00F
JUNEAU         SUNNY     78  64  61 S12       30.00F HX  80
6HR MIN TEMP:  77; 6HR MAX TEMP:  81;

$$

LSZ147-162-060100-
LAKE SUPERIOR

STATION/POSITION TIME  TEMP    WIND        PRES    WAVE
                       AIR SEA DIR/SP/G            HT/PER
                 (UTC) (F)     (DEG/KT/KT) (MB)    (FT/S)
W MID LAKE BUOY  2350   48 39  120/  8/ 10 1009.2F   0
DEVILS ISLAND    0000   75     220/  5/  5 1008.1F
SAXON HARBOR     2340   83     190/  8/ 12 1009.1F
$$

LMZ867-665-643>646-060100-
LAKE MICHIGAN

STATION/POSITION TIME  TEMP    WIND        PRES    WAVE
                       AIR SEA DIR/SP/G            HT/PER
                 (UTC) (F)     (DEG/KT/KT) (MB)    (FT/S)
CHAMBERS ISLAND  2300   75     150/  5/ 14 1014.6F
S GREEN BAY BUOY 0000   74 71  170/ 14/ 17 1015.9F
N MID LAKE BUOY  2350   55 47  190/ 10/ 12 1015.3F   1/ 3


USA.gov is the U.S. government's official web portal to all federal, state and local government web resources and services.